Tracking 18980 objects as of 23-Feb-2018
HD Live streaming from Space Station
objects crossing your sky now

DELTA 1 DEB

Track DELTA 1 DEB now!
10-day predictions


NORAD ID: 15205
Int'l Code: 1984-088E
Perigee: 556.2 km
Apogee: 3,857.3 km
Inclination: 28.7 °
Period: 131.8 minutes
Semi major axis: 8577 km
RCS: 0.0578 m2 (small)
Launch date: August 16, 1984
Source: United States (US)
Launch site: AIR FORCE EASTERN TEST RANGE (AFETR)

Note: This is SATELLITE DEBRIS
aabbcc
Your satellite tracking list
Your tracking list is empty




NASA's NSSDC Master Catalog

Two Line Element Set (TLE):
1 15205U 84088E   18053.60595948 +.00000228 +00000-0 +10077-3 0  9994
2 15205 028.7256 159.5607 1924240 197.4051 305.9601 10.92800862905247
Source of the keplerian elements: AFSPC